[[{"header":{"parameterUnit":"m.s-1","parameterCategory":1,"la1":30.2991,"la2":30.254,"lo1":-89.0895,"lo2":-89.0444,"dy":0.0017,"dx":0.0017,"nx":28,"ny":28,"refTime":"2025-03-29T21:00:00:Z","depth":0,"parameterNumber":2,"parameterNumberName":"U-component_of_WINDS"},"data":[0,0,0,0,0,0,0,0,0,0,0,0,0,0,0,0,0,0,0,0,0,0,0,0,0,0,0,0,0,0,0,0,0,0,0,0,0,0,0,0,0,0,0,0,0,0,0,0,0,0,0,0,0,0,0,0,0,0,-0.0132,-0.0132,0,-0.016,-0.0161,-0.0161,-0.0196,-0.0197,-0.0197,-0.0198,-0.0225,-0.0225,-0.0225,0,0,0,0,0,0,0,0,0,0,0,0,0,-0.0105,-0.0105,-0.0132,-0.0132,-0.0133,-0.016,-0.0161,-0.0161,-0.0196,-0.0197,-0.0197,-0.0198,-0.0225,-0.0225,-0.0226,0,0,0,0,0,0,0,0,0,0,0,0,0,-0.0123,-0.0105,-0.0132,-0.0153,-0.0156,-0.016,-0.0161,-0.0161,-0.0196,-0.0197,-0.0197,-0.0198,-0.0225,-0.0225,-0.0226,-0.0211,0,0,-0.0227,-0.0227,0,0,0,0,0,0,0,0,-0.0122,-0.0124,-0.015,-0.0152,-0.0154,-0.0176,-0.0161,-0.0178,-0.0196,-0.018,-0.0198,-0.0199,-0.0208,-0.021,-0.0213,-0.0212,-0.0213,-0.0227,-0.0227,-0.0227,-0.0227,0,0,0,0,0,0,0,-0.0121,-0.0123,-0.0143,-0.015,-0.0153,-0.0161,-0.0164,-0.0165,-0.0189,-0.0182,-0.0184,-0.0187,-0.0209,-0.0213,-0.0214,-0.0214,-0.0227,-0.0227,-0.0227,-0.0227,-0.0201,-0.02,0,0,0,0,0,0,-0.0117,-0.0122,-0.0142,-0.0144,-0.014,-0.0161,-0.0165,-0.0168,-0.0189,-0.0193,-0.0187,-0.0189,-0.0212,-0.0214,-0.0215,-0.0198,-0.0227,-0.0227,-0.0227,-0.0202,-0.0201,-0.02,0,0,0,0,0,0,-0.0116,-0.0118,-0.0141,-0.0134,-0.0137,-0.016,-0.0164,-0.0168,-0.0172,-0.0193,-0.0197,-0.0186,-0.0212,-0.0215,-0.0211,-0.02,-0.0227,-0.0228,-0.0203,-0.0201,-0.02,-0.0165,0,0,0,0,0,0,-0.0115,-0.0118,-0.0113,-0.0133,-0.0138,-0.0138,-0.0163,-0.0168,-0.0172,-0.0175,-0.0193,-0.0197,-0.0213,-0.0211,-0.0212,-0.0201,-0.0228,-0.0204,-0.0202,-0.0201,-0.0167,-0.0163,-0.0159,0,0,0,0,0,-0.0114,-0.0102,-0.0113,-0.0115,-0.0132,-0.0137,-0.0139,-0.0159,-0.0171,-0.0166,-0.018,-0.0196,-0.0201,-0.021,-0.0212,-0.02,-0.0205,-0.0203,-0.0201,-0.0169,-0.0164,-0.0159,0,0,0,0,0,0,-0.008,-0.0105,-0.0117,-0.0112,-0.0122,-0.0143,-0.0137,-0.0152,-0.0159,-0.0161,-0.0185,-0.0188,-0.0182,-0.0191,-0.0201,-0.0187,-0.0205,-0.0203,-0.0181,-0.0176,-0.0172,-0.0169,-0.0228,0,0,0,0,0,-0.0072,-0.0074,-0.0096,-0.0089,-0.0093,-0.0114,-0.0117,-0.0131,-0.0142,-0.0147,-0.016,-0.017,-0.0173,-0.0175,-0.018,-0.0169,-0.0173,-0.0162,-0.0158,-0.0154,-0.0152,-0.0145,-0.0141,-0.0193,-0.0193,-0.0193,0,0,-0.0055,-0.0069,-0.0069,-0.0082,-0.0092,-0.0093,-0.0118,-0.0118,-0.0119,-0.0147,-0.0144,-0.0154,-0.0167,-0.0159,-0.0157,-0.0167,-0.0138,-0.0151,-0.0148,-0.0148,-0.0143,-0.0138,-0.0133,-0.0192,-0.0192,-0.0192,0,0,-0.0024,-0.0035,-0.003,-0.0039,-0.0053,-0.0067,-0.0066,-0.0084,-0.0092,-0.009,-0.0111,-0.0112,-0.0118,-0.0125,-0.013,-0.01,-0.0116,-0.0101,-0.0078,-0.0072,-0.0068,-0.0064,-0.0053,-0.0048,-0.0099,-0.0099,-0.0099,0,-0.0001,-0.0004,-0.0025,-0.0024,-0.0029,-0.0054,-0.0048,-0.0056,-0.0071,-0.0073,-0.0084,-0.0091,-0.0101,-0.0095,-0.0088,-0.0091,-0.0089,-0.0099,-0.0067,-0.0063,-0.006,-0.0049,-0.0045,-0.0097,-0.0097,-0.0098,-0.0098,0,0.0026,0.0024,0.003,0.0017,0.0013,0.0016,-0.0004,-0.0005,-0.0018,-0.0031,-0.0027,-0.0041,-0.0048,-0.0047,-0.0061,-0.0043,-0.0048,-0.0063,-0.0082,-0.0053,-0.0043,-0.0039,-0.0095,-0.0095,-0.0096,-0.0096,0,0,0.0077,0.0052,0.0055,0.0049,0.0032,0.0031,0.0034,0.0027,0.0027,0.0018,0.002,0.0016,0.0003,-0.0002,-0.0016,-0.001,0.0015,-0.0025,-0.0026,-0.0016,0.0036,0.0047,0.0052,0.0005,0.0006,0.0006,0.0037,0,0.0105,0.0108,0.009,0.0098,0.0097,0.0074,0.0076,0.0067,0.0056,0.0054,0.0042,0.004,0.0022,0.0019,0.0024,0.0011,0.0026,0.0009,0.0009,0.0009,0.0013,0.0057,0.0069,0.0099,0.0041,0.0041,0.0042,0,0.0138,0.0131,0.014,0.0123,0.0122,0.0125,0.0118,0.0116,0.0106,0.0097,0.0092,0.0076,0.0079,0.0061,0.0065,0.0054,0.0053,0.0047,0.0048,0.0048,0.0028,0.0059,0.0108,0.0113,0.0047,0.0047,0.0047,0,0.0176,0.0168,0.0173,0.0169,0.015,0.0152,0.0145,0.0133,0.0131,0.0124,0.0123,0.0117,0.0114,0.0111,0.0094,0.0082,0.0102,0.0081,0.0096,0.0096,0.0101,0.0101,0.0151,0.0099,0.0099,0.0099,0.0099,0,0.0209,0.0216,0.019,0.0193,0.02,0.0179,0.0187,0.0177,0.0167,0.0168,0.0147,0.0149,0.0127,0.0127,0.0114,0.012,0.0119,0.0113,0.011,0.0115,0.0116,0.0115,0.0113,0.01,0.01,0.01,0.0099,0,0.0253,0.0235,0.0239,0.0221,0.0217,0.0223,0.0208,0.021,0.0198,0.02,0.02,0.0181,0.018,0.0163,0.0158,0.0149,0.0161,0.0153,0.0165,0.0163,0.0178,0.0178,0.023,0.0236,0.0179,0.018,0.018,0,0.0276,0.028,0.0263,0.0262,0.0256,0.0255,0.0252,0.0232,0.023,0.0219,0.0224,0.0221,0.0217,0.0217,0.0203,0.0199,0.0192,0.0211,0.0191,0.0198,0.0194,0.0194,0.0195,0.0215,0.0216,0.0216,0.0217,0,0.0319,0.031,0.0307,0.0301,0.0299,0.0293,0.0287,0.0288,0.0266,0.0265,0.0263,0.0261,0.0256,0.0254,0.0248,0.0241,0.0226,0.0223,0.0226,0.0232,0.0239,0.0237,0.0177,0.0222,0.0221,0.0221,0.0221,0.0221,0.0353,0.0357,0.0345,0.0343,0.0336,0.0331,0.0333,0.0321,0.0319,0.0314,0.0302,0.0303,0.0293,0.0284,0.0278,0.0279,0.027,0.0274,0.0276,0.0277,0.0281,0.0239,0.0278,0.0278,0.0278,0.0278,0.0277,0,0.0396,0.0388,0.0386,0.0377,0.0376,0.0361,0.0354,0.0354,0.0354,0.0347,0.0344,0.0343,0.0341,0.0328,0.0324,0.0328,0.0321,0.0328,0.0328,0.0327,0.0289,0.0287,0.0334,0.0334,0.0334,0.0334,0.0334,0.0334,0.0418,0.0424,0.0414,0.0417,0.0409,0.0409,0.0406,0.0401,0.0395,0.0395,0.0393,0.0385,0.0375,0.0371,0.0369,0.0366,0.0366,0.0375,0.0369,0.0335,0.0329,0.0324,0.0322,0.0375,0.0375,0.0407,0.0408,0.0408]},{"header":{"parameterUnit":"m.s-1","parameterCategory":1,"la1":30.2991,"la2":30.254,"lo1":-89.0895,"lo2":-89.0444,"dy":0.0017,"dx":0.0017,"nx":28,"ny":28,"refTime":"2025-03-29T21:00:00:Z","depth":0,"parameterNumber":3,"parameterNumberName":"V-component_of_WINDS"},"data":[0,0,0,0,0,0,0,0,0,0,0,0,0,0,0,0,0,0,0,0,0,0,0,0,0,0,0,0,0,0,0,0,0,0,0,0,0,0,0,0,0,0,0,0,0,0,0,0,0,0,0,0,0,0,0,0,0,0,5.1781,5.1784,0,5.2075,5.2079,5.2082,5.2157,5.2155,5.2153,5.2151,5.2452,5.2461,5.2471,0,0,0,0,0,0,0,0,0,0,0,0,0,5.1285,5.1293,5.1781,5.1784,5.1788,5.2075,5.2079,5.2083,5.2157,5.2155,5.2152,5.215,5.2448,5.246,5.2472,0,0,0,0,0,0,0,0,0,0,0,0,0,5.1532,5.1296,5.178,5.186,5.187,5.2074,5.2079,5.2084,5.2157,5.2155,5.2152,5.2149,5.2445,5.2459,5.2473,5.2619,0,0,5.2518,5.2524,0,0,0,0,0,0,0,0,5.1517,5.155,5.1844,5.1855,5.1866,5.2076,5.2014,5.2263,5.2158,5.2048,5.2151,5.2148,5.2329,5.2353,5.2414,5.2633,5.2646,5.2519,5.2528,5.2534,5.2538,0,0,0,0,0,0,0,5.15,5.1537,5.1897,5.1848,5.1862,5.1881,5.1913,5.2062,5.22,5.2057,5.2064,5.2097,5.2334,5.24,5.2422,5.265,5.2519,5.2532,5.2541,5.2546,5.3008,5.3012,0,0,0,0,0,0,5.1469,5.1523,5.1888,5.1906,5.1681,5.1892,5.1928,5.2012,5.2199,5.2225,5.21,5.21,5.2376,5.2405,5.2433,5.2619,5.2534,5.2548,5.2556,5.3005,5.3009,5.3013,0,0,0,0,0,0,5.1458,5.1501,5.1876,5.1716,5.1766,5.1904,5.1997,5.2019,5.2085,5.2231,5.2256,5.2141,5.2375,5.2412,5.2573,5.2631,5.2554,5.2568,5.3001,5.3006,5.3011,5.2991,0,0,0,0,0,0,5.1444,5.1497,5.1553,5.1717,5.1774,5.2011,5.2001,5.2027,5.211,5.2113,5.2276,5.2301,5.2376,5.2551,5.2588,5.2649,5.2579,5.2996,5.3003,5.3009,5.2987,5.2995,5.3001,0,0,0,0,0,5.1426,5.1534,5.1555,5.1599,5.1847,5.2014,5.2047,5.2131,5.2114,5.2172,5.2267,5.2296,5.2618,5.2567,5.2609,5.2675,5.2993,5.3001,5.3009,5.2984,5.2993,5.3001,0,0,0,0,0,0,5.1372,5.1557,5.1583,5.1747,5.1865,5.2026,5.2102,5.2138,5.2262,5.226,5.2359,5.2395,5.2551,5.2629,5.2569,5.2829,5.2805,5.2822,5.2772,5.2782,5.2789,5.2768,5.2591,0,0,0,0,0,5.138,5.15,5.1655,5.1785,5.1843,5.1963,5.2038,5.2094,5.2219,5.2269,5.2375,5.2496,5.2625,5.2708,5.2834,5.2998,5.3037,5.3065,5.3072,5.3077,5.3091,5.3188,5.3203,5.3039,5.3039,5.3039,0,0,5.1396,5.1512,5.1582,5.1778,5.1875,5.1999,5.2004,5.2133,5.2227,5.2289,5.2449,5.2531,5.2672,5.2836,5.2914,5.2906,5.3145,5.3087,5.309,5.3102,5.3198,5.3213,5.3227,5.3044,5.3043,5.3042,0,0,5.149,5.1588,5.171,5.1808,5.1956,5.2036,5.2065,5.2223,5.228,5.2442,5.2492,5.2605,5.2823,5.2924,5.3003,5.3138,5.3171,5.3176,5.3214,5.3308,5.3321,5.3333,5.3384,5.3401,5.3189,5.3189,5.3189,0,5.1492,5.168,5.1768,5.1897,5.1983,5.2046,5.2171,5.2262,5.2443,5.2502,5.249,5.277,5.2869,5.3059,5.3093,5.3154,5.3192,5.3159,5.3311,5.3325,5.3337,5.3388,5.3406,5.3189,5.3189,5.3189,5.3189,0,5.1677,5.1807,5.1887,5.2063,5.2158,5.2283,5.2392,5.2478,5.2525,5.2606,5.2772,5.2893,5.3047,5.3096,5.3142,5.3295,5.3286,5.3292,5.3271,5.3351,5.3401,5.342,5.3189,5.3189,5.3189,5.3189,0,0,5.1745,5.197,5.1998,5.208,5.2249,5.2352,5.2482,5.2633,5.2707,5.283,5.2943,5.3128,5.3136,5.3226,5.3285,5.3366,5.347,5.3363,5.3368,5.3381,5.365,5.3646,5.3667,5.3492,5.3496,5.3499,5.3639,0,5.1862,5.2097,5.2182,5.2375,5.2498,5.2561,5.2675,5.2792,5.2871,5.2988,5.3075,5.3207,5.3205,5.326,5.3343,5.344,5.3526,5.343,5.36,5.3605,5.3566,5.3692,5.3688,5.3814,5.3658,5.3661,5.3664,0,5.203,5.2158,5.2364,5.2522,5.2577,5.2678,5.2826,5.2935,5.307,5.3123,5.3225,5.3279,5.3419,5.3388,5.3584,5.3517,5.3592,5.365,5.3657,5.3678,5.3641,5.3719,5.3856,5.3876,5.3694,5.3692,5.369,0,5.2063,5.2287,5.244,5.2508,5.2695,5.2765,5.2846,5.2978,5.3065,5.3194,5.3252,5.3395,5.3474,5.3584,5.3676,5.3644,5.3865,5.384,5.3914,5.3912,5.3959,5.3956,5.4113,5.4002,5.4002,5.4001,5.4001,0,5.2187,5.2312,5.2458,5.2553,5.2696,5.2792,5.293,5.3015,5.3133,5.3247,5.3308,5.3413,5.3527,5.3648,5.372,5.3873,5.3907,5.3955,5.3973,5.3952,5.3946,5.4003,5.3998,5.4006,5.4005,5.4004,5.4003,0,5.2249,5.2351,5.2524,5.2688,5.2732,5.283,5.2971,5.3066,5.3148,5.3292,5.3331,5.3461,5.3606,5.3708,5.3894,5.3943,5.411,5.4125,5.4065,5.4074,5.4143,5.4137,5.4346,5.4379,5.4242,5.4243,5.4244,0,5.2322,5.242,5.2595,5.2676,5.2758,5.2887,5.2977,5.3076,5.3167,5.333,5.3406,5.3556,5.3682,5.3911,5.4023,5.4166,5.4188,5.4251,5.421,5.4186,5.4193,5.4188,5.42,5.4258,5.4259,5.426,5.426,0,5.2443,5.249,5.2617,5.2764,5.287,5.299,5.3111,5.3173,5.3294,5.3394,5.3544,5.3641,5.3833,5.3982,5.4137,5.4222,5.4263,5.4272,5.4298,5.4278,5.424,5.4265,5.4085,5.4268,5.4267,5.4266,5.4266,5.4266,5.2516,5.2607,5.2746,5.2887,5.2988,5.3101,5.3199,5.3296,5.3423,5.3588,5.3638,5.3795,5.393,5.4143,5.423,5.4355,5.4351,5.4386,5.4396,5.4404,5.4406,5.4218,5.4383,5.4383,5.4383,5.4383,5.4383,0,5.2643,5.2736,5.2864,5.3033,5.3144,5.3173,5.3309,5.3401,5.3538,5.3661,5.3784,5.3959,5.4104,5.4228,5.4379,5.4456,5.4479,5.4492,5.4489,5.4509,5.4398,5.4363,5.4472,5.4472,5.4472,5.4472,5.4472,5.4472,5.2722,5.288,5.2944,5.3153,5.3246,5.3401,5.3477,5.3581,5.3681,5.3873,5.3995,5.4075,5.42,5.4361,5.4497,5.4529,5.4583,5.4594,5.4631,5.4526,5.4516,5.4506,5.4474,5.4604,5.4604,5.4732,5.4733,5.4734]}]]